Temp
4 4 4 3 4 4 4 5 5 5 5 5 5 5 5 5 6 6 7 8 8 9 9 9 9 10 10 11 11 12 12 12 12 12 13 13 13 14 14 14 15 15 15 15 15 15 15 16 16 16 16 16 16 16 15 15 15 15 15 16 16 16 16 16 16 16 16 16 16 16 16 16 16 16 16 16 16 16 16 16 16 15 15 15 15 15
3 3 3 3 3 3 4 4 4 4 4 4 4 4 4 4 4 5 6 6 7 7 8 8 8 8 9 9 10 10 11 11 11 11 11 12 12 13 13 14 14 14 14 14 15 15 15 15 15 15 15 15 15 15 15 15 15 15 15 15 15 15 15 16 16 16 16 16 16 16 16 16 16 16 16 16 16 16 16 16 16 15 15 15 15 15
2 3 3 3 3 3 3 4 4 4 4 4 4 4 4 4 4 4 4 5 6 6 7 7 7 7 7 7 8 8 9 9 9 10 10 11 11 11 12 12 13 14 14 14 14 14 14 15 15 15 15 15 15 15 15 15 15 15 15 15 15 15 15 15 15 15 16 16 16 16 16 16 16 16 16 16 16 16 16 16 16 15 15 15 15 15
2 2 2 2 3 3 3 3 3 4 4 4 4 3 3 3 3 3 3 4 4 5 5 6 6 6 6 6 7 7 8 8 8 9 9 10 10 11 11 11 12 13 13 14 14 14 14 14 14 15 15 15 15 14 14 15 15 15 15 15 15 15 15 15 15 15 15 15 16 16 16 16 16 16 16 16 16 16 16 16 15 15 15 15 15 15
1 2 2 2 2 2 2 3 3 3 4 3 3 3 3 3 3 3 3 3 3 4 4 5 5 5 5 5 6 7 7 7 7 8 8 8 9 10 10 11 11 11 12 12 13 14 14 14 14 14 15 14 14 14 14 14 14 14 14 14 14 14 14 15 15 15 15 15 15 16 16 16 16 16 16 16 16 16 16 16 15 15 15 15 15 15
1 1 1 1 2 2 2 2 3 3 3 2 2 2 2 2 2 2 2 2 3 3 3 4 4 4 4 4 5 6 6 7 7 7 7 7 8 9 9 10 10 10 11 11 12 12 13 14 14 14 14 14 14 13 13 13 14 14 14 14 14 14 14 14 14 15 15 15 15 15 15 16 16 16 16 16 16 15 15 15 15 15 15 15 15 15
1 1 1 1 1 1 2 2 3 3 2 1 1 1 1 2 2 1 1 2 2 2 2 3 3 4 4 4 4 5 5 6 6 6 6 7 7 8 8 8 9 9 10 10 11 11 12 13 13 14 14 14 14 13 13 13 13 13 13 13 13 13 14 14 14 14 14 15 15 15 15 15 16 16 16 16 16 15 15 15 15 15 15 15 15 15
0 0 0 1 1 1 1 2 2 2 1 1 1 1 1 1 1 1 1 1 1 2 2 2 2 3 3 3 4 4 4 5 5 5 5 6 7 7 7 7 8 8 8 9 10 10 11 12 12 13 14 14 14 14 13 13 13 13 13 13 13 13 13 13 13 14 14 14 14 15 15 15 15 15 15 15 15 15 15 15 15 15 15 15 15 15
-0 0 0 0 0 1 1 2 2 1 1 0 0 0 0 0 0 0 0 1 1 1 1 1 2 2 2 3 3 3 4 4 4 4 4 5 5 6 6 7 7 7 7 8 8 9 10 11 11 12 13 13 14 14 13 13 13 13 12 13 13 13 13 13 13 13 14 14 14 14 15 15 15 15 15 15 15 15 15 15 15 15 15 15 15 15
-0 -0 -0 0 0 0 1 1 1 1 0 0 0 0 0 0 -0 -0 -0 0 0 0 1 1 1 1 2 2 2 3 3 3 4 4 3 4 4 5 5 6 6 6 7 7 7 8 9 10 10 11 12 12 13 13 13 13 13 12 12 12 13 12 12 12 12 13 13 13 14 14 14 15 15 15 15 15 15 15 15 15 15 15 15 15 15 15
-0 -0 -0 -0 0 0 0 1 1 0 -0 -0 -0 -0 0 -0 -0 -0 -0 -0 -0 0 0 0 0 1 1 1 2 2 3 3 3 3 3 3 3 4 4 5 5 6 6 7 7 8 8 9 9 10 11 11 12 12 12 13 13 12 12 13 13 13 12 12 12 12 13 13 13 14 14 14 15 15 15 15 15 15 15 15 15 15 15 15 15 15
-1 -1 -0 -0 -0 -0 0 0 0 -0 -0 -0 -0 -0 -0 -0 -0 -1 -0 -0 -0 -0 -0 -0 0 0 1 1 1 2 2 3 2 2 2 2 3 3 3 4 4 5 6 6 7 7 7 8 8 9 10 10 11 11 12 12 12 12 12 12 13 13 13 12 12 12 12 13 13 13 14 14 14 14 15 15 15 15 15 15 15 15 15 14 14 15
-1 -1 -1 -1 -0 -0 -0 -0 -0 -0 -0 -0 -0 -0 -0 -1 -1 -1 -1 -1 -0 -0 -0 -0 -0 -0 0 1 1 2 2 2 1 1 2 2 2 2 2 3 3 4 5 5 6 7 7 7 7 8 9 9 10 11 11 11 11 12 12 12 12 13 13 13 12 12 12 12 13 13 13 14 14 14 14 14 14 15 15 15 15 15 15 14 14 14
-1 -1 -1 -1 -1 -1 -1 -0 -0 -0 -0 -0 -1 -1 -1 -1 -1 -1 -1 -1 -1 -1 -1 -0 -0 -0 0 1 1 1 1 1 1 1 1 1 1 1 2 2 3 3 4 4 5 5 6 6 6 7 7 8 9 10 10 11 11 12 12 12 12 12 12 12 12 12 12 12 12 13 13 13 14 14 14 14 14 14 14 15 15 15 15 14 14 14
-1 -1 -1 -1 -1 -1 -1 -1 -1 -1 -1 -1 -1 -1 -1 -1 -1 -1 -1 -1 -1 -1 -1 -0 -0 -0 0 1 1 1 1 1 0 0 0 1 1 1 1 2 2 3 3 4 4 5 5 6 6 6 6 6 7 7 8 9 10 10 11 12 12 12 12 12 12 12 12 12 12 12 13 13 13 13 14 14 14 14 14 14 15 15 15 15 15 15
-1 -1 -1 -1 -1 -1 -1 -1 -1 -1 -1 -1 -1 -2 -2 -2 -2 -1 -1 -1 -1 -1 -1 -0 -0 -0 0 0 1 1 0 0 -0 -0 -0 0 0 1 1 1 2 3 3 4 4 5 5 5 5 5 6 6 6 7 7 7 7 7 8 10 11 12 12 12 12 12 11 11 12 12 12 13 13 13 13 14 14 14 14 14 14 15 15 15 15 15
-1 -1 -1 -1 -1 -1 -1 -1 -1 -1 -1 -2 -2 -2 -2 -2 -2 -2 -2 -1 -1 -1 -1 -1 -0 -0 0 0 0 0 -0 -0 -0 -0 -0 -0 0 1 1 1 2 2 3 3 4 4 4 4 4 4 5 6 6 7 7 7 7 7 7 7 8 10 11 11 12 12 11 11 12 12 12 12 13 13 13 13 13 14 14 14 14 14 14 14 14 15
-1 -1 -1 -1 -1 -1 -1 -1 -1 -2 -2 -2 -2 -2 -2 -2 -2 -2 -2 -2 -1 -1 -1 -1 -1 -0 -0 0 -0 -0 -0 -1 -1 -1 -0 -0 -0 0 1 1 2 2 3 3 3 3 3 3 4 4 4 5 6 6 7 7 7 7 7 7 7 8 9 10 11 11 11 11 11 12 12 12 12 13 13 13 13 13 14 14 14 14 14 14 14 14
-1 -1 -1 -1 -1 -2 -2 -2 -2 -2 -2 -2 -2 -2 -2 -2 -2 -2 -2 -2 -2 -2 -1 -1 -1 -1 -0 -0 -0 -1 -1 -1 -1 -0 -0 -0 0 0 1 1 2 2 2 2 3 3 3 3 3 3 4 5 5 6 6 7 7 7 7 7 7 7 8 9 10 11 11 11 11 11 12 12 12 12 13 13 13 13 14 14 14 15 15 14 14 14
-2 -2 -2 -2 -2 -2 -2 -2 -3 -3 -3 -3 -3 -2 -2 -2 -2 -2 -2 -2 -2 -2 -2 -1 -1 -1 -1 -1 -1 -1 -1 -1 -1 -0 -0 0 0 0 1 1 2 2 2 2 2 2 2 3 3 3 3 4 5 6 6 6 6 6 6 7 7 7 7 8 9 10 11 11 11 11 11 12 12 12 12 12 13 13 14 14 15 15 15 15 15 15
-2 -2 -3 -3 -3 -3 -3 -3 -3 -3 -3 -3 -2 -2 -2 -2 -2 -2 -2 -2 -2 -2 -2 -2 -1 -1 -1 -1 -1 -1 -1 -1 -1 -0 0 0 1 1 1 1 1 1 2 2 2 2 2 2 2 2 3 4 4 5 6 6 6 6 6 6 6 7 7 8 8 9 10 11 11 11 11 11 12 12 12 12 13 13 13 14 14 15 15 15 15 15
-3 -3 -3 -3 -3 -3 -3 -3 -3 -3 -3 -3 -2 -2 -2 -2 -2 -2 -2 -2 -2 -2 -2 -2 -2 -2 -2 -2 -2 -2 -1 -1 -1 -0 0 0 1 1 1 1 1 1 2 2 2 2 2 2 2 2 3 3 4 4 5 5 6 6 6 6 6 6 7 8 8 9 10 10 11 11 11 11 11 12 12 12 13 13 13 13 14 14 14 15 15 15
-4 -4 -4 -4 -3 -3 -3 -3 -3 -3 -3 -2 -2 -2 -2 -2 -2 -2 -2 -3 -3 -3 -3 -3 -3 -3 -3 -3 -2 -2 -1 -1 -1 -0 -0 0 1 1 1 1 1 1 2 2 1 1 1 1 1 2 2 3 3 4 4 5 5 6 6 6 6 6 6 7 8 9 9 10 10 11 11 11 11 12 12 13 13 13 13 13 13 13 14 14 14 14
-4 -4 -4 -4 -4 -4 -3 -3 -3 -3 -3 -3 -3 -3 -3 -3 -3 -3 -3 -3 -3 -3 -3 -3 -3 -3 -3 -3 -2 -2 -2 -1 -1 -1 -1 -0 0 1 1 1 1 1 1 1 0 0 0 0 1 1 2 3 3 4 4 4 5 5 6 6 6 6 6 7 7 8 9 10 10 10 11 11 11 12 12 13 13 13 13 13 13 13 13 13 13 14
-4 -4 -4 -4 -4 -4 -3 -3 -3 -3 -3 -3 -3 -3 -3 -3 -3 -3 -4 -4 -4 -4 -4 -3 -3 -3 -3 -2 -2 -2 -2 -2 -2 -2 -1 -0 0 0 0 0 0 0 -0 -0 -1 -1 -0 0 1 1 2 2 3 3 4 4 4 4 5 6 6 6 6 6 6 7 8 9 10 10 11 11 11 11 12 13 13 13 13 13 13 13 13 13 13 13
-5 -5 -4 -4 -4 -4 -3 -3 -3 -3 -3 -3 -3 -3 -3 -3 -3 -4 -4 -4 -4 -4 -4 -3 -3 -3 -3 -3 -2 -2 -2 -3 -2 -2 -1 -1 -0 -1 -1 -1 -1 -1 -1 -1 -1 -1 -1 -0 0 1 2 2 3 3 3 3 3 4 4 5 6 6 6 6 6 6 7 8 9 10 10 10 11 11 11 12 12 12 12 12 12 12 12 12 12 13
-5 -5 -5 -4 -4 -4 -4 -4 -4 -4 -4 -4 -3 -3 -3 -4 -4 -4 -4 -4 -4 -4 -4 -3 -3 -3 -3 -3 -3 -3 -3 -3 -3 -2 -2 -2 -2 -2 -2 -2 -2 -2 -2 -2 -2 -1 -1 -0 0 1 2 2 3 3 3 3 3 3 4 5 5 6 6 6 6 6 6 7 8 9 9 10 10 10 11 11 11 12 12 12 12 12 12 12 12 12
-6 -5 -5 -5 -5 -4 -4 -4 -4 -4 -4 -4 -4 -4 -4 -4 -4 -4 -4 -4 -4 -4 -4 -3 -3 -3 -3 -3 -3 -3 -3 -3 -2 -2 -3 -3 -3 -2 -2 -2 -2 -2 -2 -2 -2 -1 -1 -0 0 1 2 2 2 2 2 2 2 3 4 5 5 6 6 6 6 6 6 7 7 8 8 9 10 10 10 11 11 11 11 11 11 12 12 12 12 11
-6 -6 -5 -5 -5 -5 -5 -5 -5 -5 -5 -5 -5 -5 -5 -5 -5 -5 -4 -5 -5 -4 -4 -4 -3 -3 -3 -3 -3 -3 -3 -3 -2 -3 -3 -3 -3 -3 -3 -3 -3 -3 -2 -2 -1 -1 -1 -0 0 1 2 2 2 2 2 2 2 3 3 4 5 5 6 6 6 6 6 7 7 7 8 8 9 10 10 11 11 11 11 11 11 12 11 11 11 11
-6 -6 -6 -6 -6 -6 -6 -6 -6 -6 -6 -5 -5 -5 -5 -5 -5 -5 -5 -5 -5 -5 -4 -4 -4 -4 -4 -3 -3 -3 -3 -3 -3 -3 -3 -3 -3 -3 -3 -3 -3 -3 -2 -2 -1 -1 -0 0 0 1 1 1 1 1 1 2 2 3 3 3 4 4 5 5 6 6 6 6 7 7 7 8 8 9 10 10 11 11 11 11 11 11 11 11 11 10
-6 -6 -6 -6 -6 -6 -6 -6 -6 -6 -6 -6 -6 -6 -6 -6 -6 -6 -6 -6 -6 -5 -5 -5 -4 -4 -4 -4 -3 -3 -3 -3 -3 -3 -4 -4 -3 -3 -3 -3 -3 -3 -3 -2 -2 -1 -1 -0 0 0 1 1 1 1 1 1 2 2 3 3 3 4 4 5 5 6 6 6 6 7 7 7 8 8 9 9 10 10 11 11 11 10 10 10 10 10
-7 -7 -6 -6 -6 -6 -6 -6 -7 -7 -7 -7 -7 -6 -6 -6 -6 -6 -6 -6 -6 -6 -6 -5 -5 -5 -4 -4 -4 -4 -3 -3 -4 -4 -4 -4 -4 -4 -4 -3 -3 -3 -3 -3 -2 -2 -1 -0 -0 0 0 0 0 0 1 1 2 2 3 3 3 3 4 4 5 5 6 6 6 6 7 7 7 8 8 9 9 10 10 10 10 10 10 10 10 10
-7 -7 -7 -7 -7 -7 -7 -7 -7 -7 -7 -7 -7 -7 -7 -7 -7 -7 -7 -7 -6 -6 -6 -6 -5 -5 -5 -5 -5 -4 -4 -4 -4 -4 -4 -4 -4 -4 -4 -3 -3 -3 -3 -3 -2 -2 -1 -1 -1 -0 -0 -0 0 0 1 1 1 2 2 3 3 3 3 4 4 5 5 6 6 6 6 7 7 7 8 8 8 9 9 9 10 10 10 10 10 10
-7 -7 -7 -7 -7 -7 -7 -7 -7 -7 -7 -7 -7 -7 -7 -7 -7 -7 -7 -7 -7 -7 -6 -6 -6 -6 -5 -5 -5 -5 -5 -5 -5 -5 -5 -5 -4 -4 -4 -4 -3 -3 -3 -2 -2 -2 -2 -1 -1 -1 -0 -0 0 0 1 1 1 2 2 3 3 3 3 3 4 4 5 5 6 6 6 7 7 7 7 7 8 8 8 9 9 9 10 10 10 10
-7 -7 -7 -7 -7 -7 -7 -7 -7 -7 -7 -7 -7 -7 -7 -7 -7 -7 -7 -7 -7 -7 -7 -6 -6 -6 -6 -6 -6 -5 -5 -5 -6 -6 -5 -5 -5 -4 -4 -4 -3 -3 -3 -3 -2 -2 -2 -1 -1 -1 -0 -0 0 1 1 1 1 2 2 2 3 3 3 3 3 4 4 5 5 6 6 6 7 7 7 7 7 7 8 8 8 9 9 9 10 10
-7 -7 -7 -7 -7 -7 -7 -7 -7 -7 -7 -7 -7 -7 -7 -7 -7 -7 -7 -7 -7 -7 -7 -7 -7 -7 -7 -6 -6 -6 -6 -6 -6 -6 -6 -5 -5 -5 -4 -4 -4 -3 -3 -3 -3 -2 -2 -1 -1 -1 -1 -0 0 1 1 1 1 1 2 2 3 3 3 4 4 4 4 4 5 5 6 6 7 7 7 7 7 7 7 7 8 8 8 9 9 9
-7 -7 -7 -7 -7 -7 -7 -7 -7 -7 -7 -7 -7 -7 -7 -7 -7 -7 -7 -7 -7 -7 -7 -7 -7 -7 -7 -7 -6 -6 -6 -6 -6 -6 -6 -5 -5 -5 -4 -4 -4 -4 -4 -3 -3 -3 -2 -2 -1 -1 -1 -0 0 1 1 1 1 1 2 2 2 3 3 4 4 4 4 4 5 5 6 6 6 7 7 7 7 7 7 7 7 8 8 8 9 9
-7 -7 -7 -7 -7 -7 -7 -7 -7 -7 -7 -7 -7 -7 -7 -7 -7 -7 -7 -7 -7 -7 -7 -7 -7 -7 -7 -7 -7 -7 -7 -6 -6 -6 -6 -5 -5 -5 -5 -5 -5 -4 -4 -4 -3 -3 -3 -2 -2 -1 -1 -1 -0 -0 0 1 1 1 1 2 2 2 3 3 4 4 4 4 5 5 5 6 6 7 7 7 7 7 7 7 7 7 7 8 8 8
-7 -7 -7 -7 -7 -7 -7 -7 -7 -7 -7 -7 -7 -7 -7 -7 -7 -7 -7 -7 -7 -7 -7 -7 -7 -7 -7 -7 -7 -7 -7 -6 -6 -6 -5 -5 -5 -5 -5 -5 -5 -5 -4 -4 -4 -4 -3 -3 -2 -2 -1 -1 -1 -0 -0 0 1 1 1 1 2 2 2 3 3 4 4 5 5 5 5 5 6 6 7 7 7 7 7 7 7 7 7 7 8 8
-7 -7 -7 -7 -7 -7 -7 -7 -7 -7 -7 -7 -7 -7 -7 -7 -7 -7 -7 -7 -7 -7 -7 -7 -7 -7 -7 -7 -7 -7 -6 -6 -6 -6 -6 -5 -5 -5 -5 -5 -5 -5 -5 -4 -4 -4 -3 -3 -3 -2 -2 -2 -1 -1 -1 -0 0 1 1 1 2 2 2 3 3 3 4 4 5 5 5 5 6 6 6 7 7 7 7 7 7 7 7 7 7 7
-7 -7 -7 -7 -7 -7 -7 -7 -7 -7 -7 -7 -7 -7 -7 -7 -7 -7 -7 -7 -7 -7 -7 -7 -7 -7 -7 -7 -7 -7 -6 -6 -6 -6 -6 -5 -5 -5 -5 -5 -5 -5 -5 -5 -4 -4 -4 -3 -3 -3 -2 -2 -2 -1 -1 -1 -0 0 1 1 1 2 2 2 3 3 3 4 4 4 5 5 5 6 6 6 7 7 7 7 7 7 7 7 7 7
-7 -7 -7 -7 -7 -7 -7 -7 -7 -7 -7 -7 -7 -7 -7 -7 -7 -7 -7 -7 -7 -7 -7 -7 -7 -7 -7 -7 -7 -6 -6 -6 -6 -6 -6 -6 -5 -5 -5 -5 -5 -5 -5 -5 -5 -5 -4 -4 -4 -3 -3 -3 -2 -2 -1 -1 -1 -0 0 1 1 1 2 2 3 3 3 3 3 3 4 4 4 5 5 6 6 6 7 7 7 7 7 7 7 7
-7 -7 -7 -7 -7 -7 -7 -7 -7 -7 -7 -7 -7 -7 -7 -7 -7 -7 -7 -7 -7 -7 -7 -7 -7 -7 -7 -7 -6 -6 -6 -6 -6 -6 -6 -6 -5 -5 -5 -5 -5 -5 -5 -5 -5 -5 -5 -5 -4 -4 -4 -3 -3 -3 -2 -2 -1 -1 -0 0 1 2 2 2 2 2 2 2 3 3 3 4 4 4 5 5 5 6 6 7 7 7 7 7 7 7
-7 -7 -7 -7 -7 -7 -7 -7 -7 -7 -7 -7 -7 -7 -7 -7 -7 -7 -7 -7 -7 -7 -7 -7 -7 -7 -7 -6 -6 -6 -6 -6 -6 -6 -6 -6 -5 -5 -5 -5 -5 -5 -6 -6 -5 -5 -5 -5 -5 -5 -4 -4 -4 -3 -3 -2 -2 -1 -1 0 1 2 2 2 2 2 2 2 2 3 3 4 4 4 4 5 5 5 6 6 6 6 6 7 7 7
-7 -7 -7 -7 -7 -7 -7 -7 -7 -7 -7 -7 -7 -7 -7 -6 -7 -7 -7 -7 -7 -7 -7 -7 -7 -7 -6 -6 -6 -6 -6 -6 -6 -6 -6 -6 -5 -5 -5 -5 -5 -6 -6 -6 -6 -6 -5 -5 -5 -5 -5 -5 -4 -4 -3 -3 -2 -1 -1 0 1 2 2 2 2 2 2 2 2 2 2 3 3 4 4 4 5 5 5 5 6 6 6 6 7 7
-7 -7 -7 -7 -7 -7 -7 -7 -7 -7 -7 -6 -6 -6 -6 -6 -6 -6 -6 -6 -7 -7 -7 -7 -7 -7 -6 -6 -6 -6 -6 -6 -6 -6 -6 -6 -6 -6 -6 -6 -6 -6 -6 -6 -6 -6 -6 -5 -5 -5 -5 -5 -4 -4 -3 -3 -2 -1 -0 0 1 1 2 2 2 2 2 2 2 2 2 2 3 3 4 4 5 5 5 5 5 6 6 6 7 7
-7 -7 -7 -7 -7 -7 -7 -7 -6 -6 -6 -6 -6 -6 -6 -6 -6 -6 -6 -6 -6 -7 -7 -7 -6 -6 -6 -6 -6 -6 -6 -6 -6 -6 -6 -6 -6 -6 -6 -6 -6 -6 -6 -6 -5 -5 -5 -5 -5 -5 -5 -5 -4 -4 -3 -3 -2 -1 -0 0 1 1 1 2 2 2 2 2 1 1 1 2 2 3 3 4 4 4 5 5 5 6 6 6 7 7
-7 -7 -7 -7 -7 -7 -7 -6 -6 -6 -6 -6 -6 -6 -6 -6 -6 -6 -6 -6 -6 -6 -6 -6 -6 -6 -6 -6 -6 -6 -6 -6 -6 -6 -5 -6 -6 -6 -6 -6 -6 -6 -6 -5 -5 -5 -5 -5 -4 -4 -4 -4 -4 -4 -3 -3 -2 -1 -1 -1 -0 0 0 1 0 0 -0 -0 -0 -0 0 1 2 3 3 4 4 4 4 5 5 5 6 6 6 7
-7 -7 -7 -7 -7 -7 -7 -6 -6 -6 -6 -6 -6 -6 -6 -6 -6 -6 -6 -6 -6 -6 -6 -6 -6 -6 -6 -6 -6 -6 -6 -6 -6 -6 -6 -6 -6 -6 -6 -6 -6 -6 -6 -5 -5 -5 -5 -4 -4 -4 -3 -3 -3 -3 -3 -2 -2 -2 -2 -2 -1 -1 -1 -1 -1 -1 -1 -2 -1 -1 -0 0 1 2 3 3 4 4 4 4 5 5 5 6 6 6
-7 -7 -7 -7 -7 -7 -7 -6 -6 -6 -6 -6 -6 -6 -6 -6 -6 -6 -6 -6 -6 -6 -6 -6 -6 -6 -6 -6 -6 -6 -6 -6 -6 -6 -6 -6 -6 -6 -6 -6 -6 -5 -5 -5 -5 -5 -4 -4 -4 -3 -3 -3 -2 -2 -2 -2 -2 -3 -3 -2 -2 -2 -2 -2 -2 -2 -2 -2 -2 -1 -1 -0 1 2 2 3 3 4 4 4 4 5 5 5 6 6
-7 -7 -7 -7 -7 -7 -7 -7 -6 -6 -6 -6 -6 -6 -6 -6 -6 -6 -6 -6 -6 -6 -6 -6 -6 -6 -6 -6 -6 -6 -5 -5 -5 -6 -6 -6 -6 -6 -6 -6 -6 -5 -5 -5 -5 -4 -4 -4 -4 -3 -3 -3 -3 -2 -2 -3 -3 -3 -3 -3 -3 -3 -3 -3 -3 -3 -2 -2 -2 -2 -1 -1 0 1 2 2 3 3 4 4 4 4 5 5 5 6
Height
764 762 761 759 758 757 755 754 753 752 750 749 748 747 746 745 744 743 742 742 741 740 739 738 737 735 734 733 733 733 733 733 733 733 733 732 732 731 731 730 730 730 730 730 730 731 731 731 732 732 732 733 733 734 734 735 736 737 738 739 740 741 742 743 744 745 746 747 748 749 750 751 753 754 755 756 757 758 760 761 762 763 765 767 768 769
763 762 761 760 758 757 755 754 753 753 751 750 749 748 747 745 743 742 741 740 740 739 738 737 736 734 733 732 731 731 731 730 730 729 729 729 728 728 728 728 728 727 727 727 727 727 728 728 728 729 729 730 730 731 732 732 733 734 735 735 737 738 738 739 741 742 743 744 745 746 747 748 749 750 752 753 754 755 756 758 759 760 762 763 765 766
763 762 761 759 758 758 756 754 753 753 752 751 750 749 747 745 744 742 741 739 738 738 738 737 735 733 732 730 729 728 727 726 725 724 724 724 724 724 724 725 724 724 724 724 724 724 724 725 725 725 726 727 727 728 728 729 730 731 731 732 733 734 735 736 737 738 739 740 741 743 743 745 746 747 749 750 751 752 753 754 756 757 758 760 762 763
764 763 761 760 759 758 757 755 754 753 753 752 750 748 747 746 744 743 741 740 738 737 737 736 735 733 731 730 728 726 725 724 723 723 722 721 721 721 721 721 722 722 722 721 721 721 721 721 722 722 723 723 724 725 726 726 727 728 728 729 730 731 732 733 734 735 736 737 738 739 740 741 743 744 745 747 748 749 750 751 753 754 755 757 758 760
766 764 763 761 760 758 757 756 755 753 753 751 750 748 747 746 745 743 741 740 738 737 736 735 733 732 731 729 728 726 725 724 723 722 721 719 718 718 717 718 718 718 719 719 718 718 718 718 718 718 719 720 720 721 722 723 724 724 725 726 727 728 728 730 731 732 733 734 735 736 737 738 739 741 742 743 745 746 747 748 750 751 753 754 755 757
767 766 764 763 762 760 758 757 755 754 753 751 750 748 748 746 745 743 742 740 739 737 736 734 733 731 730 728 727 726 724 723 723 721 720 718 716 715 714 713 713 714 715 715 716 715 715 715 715 715 716 716 717 718 718 720 721 721 722 723 723 724 725 726 727 728 729 730 732 733 733 735 736 737 739 740 742 743 744 745 747 748 749 751 752 754
767 766 765 764 763 761 759 758 756 755 753 751 750 749 748 747 745 744 743 741 740 738 735 733 732 730 729 728 726 725 723 722 721 720 718 717 715 714 713 712 711 710 710 710 711 712 712 712 712 712 712 713 713 714 715 716 717 718 718 719 720 721 722 723 724 725 726 727 728 729 730 731 733 734 735 737 738 739 740 742 743 745 746 748 749 751
767 766 765 764 763 761 759 758 757 756 754 753 752 749 748 746 745 744 742 741 739 738 735 732 730 729 728 727 725 724 723 721 720 719 717 715 714 713 712 711 710 709 708 707 706 707 707 708 708 708 709 709 710 710 711 712 713 714 715 716 717 718 718 719 721 722 723 723 725 726 727 728 729 730 732 733 734 736 737 738 740 741 743 744 745 747
768 766 765 764 763 761 759 758 758 757 756 755 753 751 749 746 744 743 741 739 738 737 735 732 729 727 726 725 724 723 722 721 720 719 717 715 713 712 711 710 709 708 707 706 704 703 703 703 704 705 706 706 706 707 707 708 709 710 711 712 713 714 715 716 717 718 719 720 721 722 723 724 725 727 728 729 731 732 733 734 736 737 739 740 742 743
769 767 766 764 764 763 761 759 758 757 757 756 755 753 751 748 745 742 739 738 737 736 734 733 730 728 725 723 723 722 721 721 720 718 717 716 714 713 711 710 709 708 707 706 704 702 700 700 701 702 703 703 703 703 703 704 705 706 707 708 709 710 711 712 713 714 715 716 717 718 720 721 722 723 725 726 727 728 729 731 732 733 735 736 738 740
769 768 766 765 764 763 762 761 759 758 757 755 754 753 752 750 748 744 741 738 736 735 734 733 731 729 726 723 722 721 721 719 718 716 715 714 713 712 711 709 708 707 706 705 703 702 700 698 698 699 699 700 700 700 701 701 701 702 703 704 705 706 707 708 709 710 711 712 713 715 716 717 718 720 721 722 723 725 726 727 728 729 731 732 734 737
769 768 767 765 764 763 762 760 759 758 756 755 753 751 750 749 748 747 744 740 738 735 733 732 731 730 728 726 723 721 720 719 717 715 713 712 711 710 709 708 707 705 704 703 702 701 699 698 697 697 697 698 698 698 698 698 698 699 699 700 701 702 703 704 705 706 707 708 709 711 712 713 715 716 717 718 719 721 722 723 724 725 727 729 731 733
770 768 767 766 764 763 762 760 759 757 756 755 754 752 750 749 748 747 745 743 740 738 735 733 730 729 728 727 725 723 721 719 717 715 714 712 711 710 708 707 705 704 703 702 701 700 698 697 696 695 695 695 696 696 696 696 696 696 696 697 697 698 699 700 701 702 703 704 705 707 708 709 711 712 713 714 715 717 718 719 720 722 723 725 727 729
770 769 768 766 765 763 762 761 759 758 757 756 755 754 752 750 749 747 745 742 740 738 736 734 731 728 727 726 725 724 722 720 717 715 713 712 711 710 709 707 705 704 703 702 700 699 698 697 696 694 694 694 694 694 695 694 694 693 693 693 693 694 694 695 696 698 699 700 701 703 704 705 707 708 709 710 712 713 714 715 717 718 720 722 724 726
771 769 768 766 765 764 763 762 760 759 758 757 756 754 753 751 749 747 745 742 740 738 736 733 731 728 727 727 726 724 723 721 718 715 713 711 710 710 709 707 704 703 702 701 700 699 698 697 696 694 693 692 692 692 693 693 693 693 692 690 690 690 690 691 692 693 695 696 697 698 700 701 703 704 705 707 708 709 710 712 713 715 717 718 720 722
771 770 768 767 765 764 763 762 761 759 758 757 756 755 753 751 749 748 746 743 740 738 736 733 730 727 726 726 726 725 723 721 719 716 713 710 708 709 709 707 704 702 701 701 700 698 697 696 695 693 693 691 691 690 689 688 688 688 688 688 687 687 687 687 688 689 691 692 693 695 696 697 698 700 701 703 704 705 707 708 709 711 713 715 717 719
771 770 769 767 766 764 763 762 761 760 759 758 756 755 754 752 750 748 746 744 741 739 737 735 732 729 725 724 724 725 724 722 719 717 714 710 708 708 708 707 705 702 701 700 699 698 697 695 694 693 691 690 689 688 688 687 686 685 683 683 683 683 684 683 684 685 687 688 689 691 692 693 695 696 698 699 700 702 703 704 706 708 710 712 714 716
771 770 769 768 766 765 763 763 761 760 759 758 756 755 753 752 750 748 747 745 743 740 738 736 734 732 729 725 723 723 724 723 720 717 713 710 708 707 708 707 705 703 701 699 698 697 696 694 693 692 690 689 688 687 686 686 685 683 682 680 679 679 680 681 681 681 683 684 685 687 688 690 691 692 694 695 697 698 699 701 702 704 706 708 710 712
771 771 769 768 767 765 764 763 762 761 759 758 756 754 753 751 750 748 747 745 743 742 740 738 735 733 731 728 725 724 724 723 720 717 713 710 708 707 707 706 704 702 700 698 697 696 695 693 692 690 689 688 687 686 685 684 683 682 680 678 677 676 675 676 677 678 679 680 682 683 684 686 687 689 690 692 693 694 696 697 698 700 703 705 707 709
772 771 770 769 768 766 764 763 763 762 760 758 757 755 753 751 749 748 747 745 743 742 740 738 736 733 731 728 726 724 724 723 720 717 713 710 708 706 706 705 703 701 699 697 696 695 694 692 691 689 688 687 685 684 683 682 681 680 678 677 675 673 673 672 673 674 675 677 678 679 681 682 684 685 687 688 689 691 692 693 695 697 699 701 703 705
773 771 771 770 768 767 765 763 763 762 760 758 756 754 753 751 749 748 746 745 743 741 740 738 736 733 732 729 726 725 724 723 720 717 713 709 707 706 706 705 703 700 698 696 695 694 693 692 690 688 687 685 684 683 682 681 679 678 676 675 673 672 671 670 669 670 671 673 674 676 677 679 680 682 683 684 686 688 689 690 692 693 695 697 699 702
773 771 770 769 768 767 765 763 762 761 760 758 756 754 753 751 749 747 746 744 743 741 740 738 736 734 732 730 727 725 724 723 721 718 714 710 706 705 705 704 702 700 698 696 694 693 692 691 689 687 686 684 683 682 681 680 678 677 675 673 672 670 669 668 667 666 667 669 671 673 674 675 677 678 679 681 683 684 686 688 689 691 692 694 696 698
773 771 769 768 767 766 764 763 761 760 759 758 756 755 753 752 750 748 746 744 743 742 740 738 735 733 731 729 727 725 724 723 722 719 716 711 707 704 704 703 702 699 697 696 694 693 691 689 688 686 684 683 682 681 680 679 677 675 674 672 671 669 667 666 665 664 664 666 668 669 671 672 674 675 676 678 679 681 683 685 687 688 690 692 693 695
772 770 768 767 766 765 764 762 761 759 758 757 756 754 753 752 750 748 747 745 743 741 739 737 734 732 729 728 726 724 723 723 722 720 717 713 708 705 704 703 702 699 697 696 694 693 690 688 686 685 683 682 681 680 679 678 676 674 673 672 670 668 667 665 664 663 663 663 665 666 668 669 671 672 673 675 676 678 680 682 684 686 688 689 690 692
770 769 768 767 765 764 763 762 761 759 758 757 755 753 752 751 749 748 746 744 743 741 739 736 734 731 728 726 725 723 722 722 721 720 717 713 708 706 705 704 703 700 697 695 694 692 690 687 685 683 683 681 680 679 678 677 675 673 672 671 669 668 666 665 663 662 662 662 663 663 664 666 667 669 670 672 673 675 677 679 681 683 684 686 687 688
770 768 767 766 765 764 763 762 760 759 758 756 755 753 751 750 748 746 745 744 742 741 738 736 733 731 728 726 724 723 722 721 721 719 717 714 710 707 706 705 704 702 698 695 693 692 690 687 684 682 681 680 679 678 678 676 674 672 671 670 668 668 666 665 663 662 661 660 661 661 662 663 664 665 667 668 670 672 673 675 678 679 681 683 684 685
768 768 766 765 764 763 762 761 759 758 757 756 755 753 751 749 747 746 745 743 742 741 739 736 733 730 728 726 724 722 721 721 720 719 717 715 712 709 707 706 705 702 699 695 693 691 689 686 683 682 680 679 678 678 677 675 673 672 670 669 668 667 666 665 663 662 660 659 659 659 659 659 660 661 663 664 666 668 670 672 673 676 678 679 681 682
768 767 765 764 763 762 761 760 758 758 756 755 754 753 751 749 748 746 745 743 742 741 739 737 734 732 729 726 724 722 721 721 720 719 717 716 713 711 708 706 705 703 700 695 692 690 688 686 683 682 680 679 678 677 676 674 673 671 669 668 666 665 665 664 663 662 660 659 658 657 657 656 657 658 658 660 662 663 665 667 669 671 673 675 676 677
767 766 765 764 763 762 760 759 758 757 756 755 753 752 751 750 749 747 746 744 743 741 739 737 735 733 730 728 724 722 721 721 720 719 717 716 714 711 708 707 705 703 701 696 691 688 687 685 684 682 680 679 678 677 675 674 672 670 668 667 665 664 663 663 662 661 660 658 657 656 655 653 653 653 654 655 657 658 660 662 664 666 668 670 671 672
765 765 764 763 762 761 760 758 757 756 755 754 753 752 751 750 749 748 746 745 743 742 740 738 736 734 731 728 725 722 720 720 720 719 718 716 713 711 708 707 705 704 702 698 693 688 684 683 683 682 681 679 678 676 675 673 672 670 668 666 664 663 662 662 661 660 658 657 656 654 653 651 650 649 649 650 651 653 655 657 659 662 663 665 666 667
765 764 763 762 761 760 759 758 757 756 754 753 753 752 751 750 749 748 747 745 744 743 741 738 736 734 733 730 727 723 720 719 719 719 718 717 714 711 709 707 705 703 703 701 697 691 685 682 681 681 680 679 677 675 674 673 672 670 668 666 664 663 662 661 660 659 658 656 654 653 652 650 648 647 646 646 647 648 650 652 655 657 659 660 662 663
766 764 763 762 761 760 759 758 757 755 754 753 752 751 750 750 749 748 747 746 744 743 741 739 737 735 733 732 729 726 722 720 720 720 719 718 714 712 710 708 706 703 703 702 701 697 691 684 681 680 679 678 677 675 673 673 671 670 668 666 664 663 661 660 659 659 658 656 653 652 650 649 647 646 644 643 644 645 647 649 651 653 655 657 658 659
766 765 764 763 761 760 759 758 757 755 754 753 752 751 750 749 748 747 746 745 744 743 741 739 737 735 733 731 729 727 724 722 721 720 720 718 715 712 710 708 706 703 702 700 699 698 694 689 684 681 678 677 676 674 673 672 671 669 668 666 664 663 661 660 660 659 658 656 654 651 649 648 647 645 644 643 642 643 644 646 648 650 652 653 654 656
766 765 764 763 761 760 759 758 757 755 754 753 752 751 750 748 748 747 746 745 744 743 741 740 738 736 733 731 728 726 723 722 721 721 720 718 716 713 710 708 706 704 701 699 698 695 693 690 686 683 679 676 675 674 672 671 670 669 668 667 665 663 662 660 660 659 658 656 654 651 648 647 646 645 644 642 641 641 642 643 646 648 649 650 651 653
766 765 764 763 761 760 759 758 757 755 754 753 752 751 749 748 747 746 745 744 743 742 741 740 738 737 735 732 729 726 723 721 721 720 720 718 716 713 710 708 706 704 702 699 697 695 692 689 687 684 680 677 674 673 672 671 669 668 667 666 665 663 662 660 660 659 658 656 654 650 647 646 645 644 643 642 640 639 641 642 644 646 647 648 649 650
766 765 764 763 761 760 759 758 756 755 754 753 752 750 749 748 747 745 744 743 742 741 740 739 738 736 735 733 730 728 724 722 720 720 719 718 716 714 711 708 706 705 703 700 698 695 692 689 686 684 681 678 674 672 670 670 669 668 666 665 664 663 662 660 659 658 657 656 653 650 648 645 644 644 643 641 639 639 640 642 643 644 645 647 648 648
767 765 764 763 762 760 759 758 756 755 754 752 751 750 748 747 746 745 743 742 741 740 738 737 736 735 733 732 730 728 725 722 720 719 718 717 716 714 711 708 706 705 703 701 698 695 693 690 686 683 681 679 676 673 670 669 668 667 665 664 663 663 661 660 659 658 657 655 653 650 648 646 644 643 642 640 639 639 640 641 642 643 644 645 646 647
767 765 764 763 762 760 759 758 756 755 754 752 751 749 748 747 745 744 743 741 740 739 737 736 734 733 731 730 728 727 724 722 720 718 717 716 715 713 711 708 706 704 703 701 699 696 694 691 688 684 681 679 677 674 672 670 668 666 665 663 663 662 661 660 659 657 656 654 652 650 648 646 644 643 642 640 640 640 641 641 642 642 643 643 644 645
767 765 764 763 762 761 759 758 756 755 753 752 751 749 748 746 745 743 742 741 739 738 736 735 733 731 729 728 726 725 723 721 719 718 717 715 714 712 710 708 706 703 702 701 699 697 695 692 689 686 683 680 677 674 672 671 668 667 664 663 662 661 660 659 658 657 655 653 651 649 648 646 645 643 642 642 642 642 642 641 641 641 642 642 643 643
767 765 764 763 762 761 759 758 756 755 753 752 750 749 747 746 744 743 741 740 738 737 735 734 732 730 728 727 725 723 722 720 718 717 716 714 713 711 709 708 705 703 701 699 698 697 694 692 690 687 685 682 679 676 673 671 669 667 665 663 661 660 659 658 658 656 654 652 650 649 647 646 645 644 643 643 643 642 642 641 641 641 641 641 642 642
767 765 764 763 762 760 759 758 756 754 753 751 749 748 747 745 743 742 740 738 737 736 734 733 730 728 727 725 723 722 720 719 717 716 714 713 712 710 709 707 705 703 701 699 697 695 694 692 689 687 685 683 680 677 674 671 669 668 666 664 662 660 658 658 657 656 654 652 650 649 648 646 645 644 644 643 642 642 641 641 641 640 640 640 641 641
767 765 764 763 761 760 758 757 755 754 753 751 749 748 746 745 743 741 739 738 736 734 733 731 729 727 724 723 721 720 719 718 716 715 713 712 711 709 708 706 705 703 701 698 696 694 693 691 689 687 684 682 680 677 674 671 669 668 666 664 661 659 658 657 656 655 654 652 651 649 648 647 645 644 643 643 642 641 641 640 640 640 640 640 640 640
767 765 764 762 761 759 758 756 755 753 752 750 749 747 746 744 743 741 739 738 736 734 733 731 729 727 724 722 720 718 717 716 715 713 712 711 709 708 707 705 704 703 701 698 696 693 691 690 688 686 684 682 680 678 675 672 669 667 665 663 662 659 657 655 655 654 653 652 651 649 648 647 646 644 643 642 641 640 640 640 639 639 639 639 639 639
766 765 763 762 760 758 757 756 754 753 751 749 748 746 745 743 742 741 739 737 736 734 732 731 729 727 724 722 720 717 715 714 713 712 711 710 708 707 706 704 703 701 700 698 696 693 690 688 686 685 683 682 680 678 675 672 670 667 665 663 662 660 658 656 654 654 653 652 650 649 648 647 646 644 643 642 641 640 639 639 639 639 639 639 639 638
766 764 763 761 760 758 757 755 753 752 751 749 747 746 744 743 742 740 738 737 735 733 732 730 728 726 724 722 719 717 715 713 711 710 709 708 707 706 705 703 702 700 698 697 695 693 691 688 685 683 681 680 679 677 675 673 670 668 665 663 661 659 657 656 655 654 653 651 650 649 648 646 645 643 642 641 640 640 639 639 638 638 638 638 637 637
765 764 762 761 759 758 756 755 753 752 750 748 747 745 743 742 741 739 738 737 735 733 732 730 729 727 724 722 720 717 715 712 710 708 707 706 705 704 703 702 700 698 697 695 693 692 690 688 685 682 680 678 677 676 674 673 670 668 665 663 661 659 657 656 654 653 653 652 650 649 648 646 644 643 642 640 639 639 638 638 638 638 637 637 636 636
765 763 762 760 759 757 756 754 753 751 749 748 746 744 743 741 740 738 737 736 734 733 731 729 728 727 725 723 720 718 715 713 710 708 707 705 703 702 701 699 698 697 695 694 692 690 688 687 684 682 680 678 676 674 673 671 670 668 666 664 662 660 658 656 655 654 653 652 651 649 648 646 644 643 641 640 639 638 637 637 637 637 636 636 635 635
764 763 761 760 758 757 755 753 752 750 748 747 745 743 742 741 739 738 736 735 733 732 730 728 727 725 724 722 720 718 716 713 711 709 707 705 703 701 699 698 696 695 693 692 690 688 687 685 683 682 680 678 676 674 672 671 670 668 667 665 663 661 659 657 656 655 654 653 651 650 648 647 645 643 642 640 638 637 637 637 636 636 635 635 635 634
764 763 761 759 758 756 754 753 751 750 748 746 744 742 741 740 739 738 736 734 733 731 730 728 726 724 723 721 719 717 715 713 711 709 707 705 703 701 699 697 695 693 691 689 688 686 684 683 681 680 679 678 676 675 673 671 670 669 668 666 664 662 660 659 657 656 654 653 651 650 649 648 646 645 643 640 638 637 637 636 635 635 634 634 634 633
763 762 761 759 758 756 754 752 751 749 747 746 744 742 740 739 738 736 735 734 732 731 729 728 726 724 722 720 718 716 714 713 710 708 707 705 703 701 699 697 695 693 690 688 686 684 682 680 679 678 678 677 676 675 673 672 670 668 667 666 665 663 662 660 658 656 655 653 652 650 649 647 646 645 643 641 639 637 636 635 635 634 634 634 633 633
763 761 760 758 757 755 753 752 750 748 747 745 743 742 740 738 737 735 734 733 731 730 728 727 725 723 721 719 717 715 714 712 710 708 706 704 703 701 699 697 696 693 691 688 686 683 681 679 677 676 676 676 676 676 674 672 670 668 667 665 664 663 662 660 658 657 655 654 653 651 649 648 646 645 643 642 640 638 636 635 635 634 634 633 633 632
Wind_Speed
16 18 20 22 23 24 24 26 27 28 27 27 27 27 28 29 28 25 23 22 21 21 21 21 21 22 22 23 24 26 28 30 33 35 36 38 40 42 44 46 47 49 50 50 51 52 52 52 52 53 52 52 52 51 51 50 50 50 50 50 51 51 52 52 52 52 52 52 52 51 52 52 52 52 52 52 51 50 50 49 49 48 47 46 44 43
17 18 19 20 22 23 23 26 27 26 26 25 25 26 27 28 28 26 26 25 24 22 21 20 20 20 20 20 20 20 21 23 26 28 31 34 37 40 42 44 46 47 49 49 50 51 51 51 51 52 51 51 51 51 50 50 50 51 51 51 51 51 52 52 53 53 53 53 52 52 52 52 52 52 52 52 52 51 51 50 50 50 48 47 45 44
18 18 18 19 20 21 22 25 26 25 24 23 23 25 27 28 26 25 26 28 28 26 24 23 22 21 20 19 18 17 17 17 18 20 22 25 29 33 37 40 43 45 47 48 49 49 50 50 50 50 50 49 49 49 49 50 50 51 51 52 52 52 52 53 53 54 54 53 53 52 52 52 52 52 53 53 52 52 51 51 51 50 49 48 46 45
17 18 18 19 19 19 20 23 24 24 22 21 22 25 27 27 26 25 27 29 30 29 27 26 25 24 24 23 22 21 20 20 19 18 17 18 20 23 27 31 36 40 43 46 47 47 48 49 49 49 48 47 47 47 48 49 49 50 51 51 52 52 52 53 53 54 54 54 54 53 52 52 52 52 52 53 53 52 52 52 51 51 50 49 47 46
16 16 18 18 18 18 19 21 22 22 21 21 23 26 27 27 26 26 28 30 30 29 28 28 28 28 28 29 29 28 27 26 25 23 20 18 16 16 17 21 25 31 36 41 44 46 47 48 48 48 47 46 46 45 46 47 48 49 50 50 51 52 52 53 53 54 54 54 54 54 53 53 52 52 53 53 53 52 52 52 52 51 51 50 48 47
16 16 16 16 16 17 18 20 20 20 20 22 25 27 27 26 25 26 27 28 28 27 27 28 29 30 30 31 32 32 32 31 30 28 26 23 19 16 14 15 17 21 26 33 39 43 46 48 48 48 47 46 46 45 45 46 47 47 48 49 50 51 52 52 53 54 54 54 54 54 54 53 53 53 53 53 53 52 52 52 52 52 51 50 49 48
16 16 16 16 16 16 17 18 18 18 22 24 26 26 26 24 24 24 25 25 25 25 26 27 29 30 30 32 33 34 34 33 32 30 30 28 25 22 19 17 16 16 19 23 29 36 42 46 48 48 48 47 47 47 46 46 46 46 47 47 48 49 50 51 52 53 54 54 54 55 55 54 54 54 54 53 53 53 53 52 52 52 52 51 50 49
16 16 16 16 17 17 17 16 16 18 23 25 25 24 24 23 22 23 25 24 23 23 25 26 28 29 30 32 34 35 34 32 30 30 31 31 30 28 26 25 23 21 19 18 21 26 32 39 44 47 48 48 48 48 48 48 47 47 46 46 46 47 49 50 51 53 53 54 55 55 55 55 55 55 55 54 54 54 53 53 53 53 52 51 51 50
16 16 16 16 16 17 16 15 16 19 23 23 22 21 21 21 22 23 25 24 23 23 23 25 26 28 30 32 33 33 32 28 26 27 30 32 33 32 32 31 30 30 27 23 20 19 23 29 36 42 46 47 48 48 48 48 48 47 46 46 46 46 47 49 50 52 53 54 55 55 55 56 55 55 55 55 55 55 54 54 54 53 53 52 51 50
15 15 16 15 15 15 15 15 16 18 21 21 19 18 18 19 21 23 25 24 23 23 23 23 24 26 29 32 33 31 28 25 24 25 28 31 33 34 34 34 34 34 33 30 26 20 18 20 25 32 39 44 47 48 48 48 48 48 47 46 46 46 46 47 49 51 52 54 54 55 55 55 55 55 54 55 56 56 55 55 55 54 54 53 52 51
15 15 15 15 15 15 14 14 16 18 20 20 19 17 17 17 19 21 23 24 24 24 23 23 23 24 26 29 30 29 25 24 25 28 30 33 34 35 35 35 35 35 35 33 30 25 20 17 17 21 28 36 42 47 49 49 49 48 48 47 47 46 46 46 47 49 51 53 54 54 55 55 54 54 55 55 56 56 56 55 55 55 55 53 52 51
14 14 14 14 15 15 15 16 17 18 19 19 19 19 19 18 19 20 20 22 23 24 24 24 23 23 23 25 26 25 23 24 26 30 33 35 35 35 35 35 35 35 35 34 31 28 25 22 20 19 21 25 32 39 45 48 49 50 49 49 48 47 46 46 47 48 50 52 54 54 55 55 55 55 55 56 56 56 56 55 55 55 54 52 52 51
14 14 14 14 15 15 16 17 17 18 18 17 17 17 18 20 20 20 19 20 21 22 23 24 24 23 23 22 21 20 21 24 28 31 33 34 33 32 33 33 33 33 32 32 31 29 27 26 24 22 23 23 24 29 36 43 48 50 51 51 50 48 47 46 47 48 50 52 54 55 55 56 56 56 56 56 56 56 55 55 55 55 54 52 51 52
15 15 15 15 14 15 15 16 16 16 16 16 17 18 19 20 21 21 20 20 21 21 22 22 23 23 21 19 17 17 20 25 29 31 32 31 30 30 30 30 30 30 29 28 28 27 28 27 26 26 25 24 24 24 27 34 41 47 51 51 50 48 47 46 47 48 50 52 54 55 56 57 57 57 56 56 55 55 55 54 54 54 54 52 51 51
14 14 14 14 14 15 15 15 16 16 17 17 18 20 21 21 21 21 20 20 21 22 22 22 23 22 19 16 15 17 21 25 27 28 30 30 30 29 28 28 28 28 26 25 25 25 26 26 27 27 27 26 25 24 24 25 29 35 42 47 48 47 46 45 46 48 50 52 54 55 56 56 56 56 56 56 55 55 54 53 53 53 53 51 50 50
14 14 13 13 14 15 15 14 15 16 18 19 20 21 21 21 21 21 20 20 21 21 21 21 21 20 19 16 15 17 22 25 26 26 27 28 29 28 26 26 26 25 25 24 23 24 25 25 27 28 29 29 29 28 26 25 25 26 28 34 41 45 46 45 45 46 49 51 53 55 55 56 56 56 56 56 55 54 53 52 52 52 52 51 51 50
14 14 14 14 14 15 15 15 16 16 18 20 21 21 21 20 20 20 20 20 20 20 19 17 13 10 13 18 18 18 22 25 26 26 25 25 26 27 26 24 24 24 24 23 23 23 25 26 27 28 29 30 30 30 29 29 28 27 26 25 29 36 42 45 46 46 47 50 52 54 54 55 55 55 55 55 55 54 53 52 52 51 51 51 51 50
14 14 15 15 15 16 16 17 18 18 19 21 22 22 21 20 19 19 19 19 19 18 18 17 14 9 9 14 19 21 23 26 26 26 24 24 25 25 25 23 22 22 23 23 23 23 25 27 27 28 29 29 29 28 29 30 31 31 29 27 25 26 33 40 45 46 47 49 51 53 54 54 55 55 55 55 54 54 53 52 51 51 50 50 50 49
14 14 14 15 16 17 18 18 19 19 20 21 22 22 21 20 19 19 18 19 19 18 18 17 17 16 15 17 20 23 25 27 27 25 23 22 23 24 23 22 21 22 22 23 24 25 26 27 28 28 29 28 27 27 27 29 31 32 31 29 26 24 25 31 39 44 47 48 49 51 52 53 54 54 54 54 54 53 53 52 51 50 49 49 48 47
15 15 16 17 18 18 18 19 19 20 20 22 22 22 20 20 20 19 19 18 18 19 19 18 17 18 18 20 22 24 26 28 27 24 21 21 21 21 20 20 21 22 23 24 25 25 26 27 28 29 29 28 27 26 26 28 29 31 31 31 29 26 24 25 31 38 44 47 49 50 51 52 53 53 54 53 53 53 52 52 51 49 48 47 46 46
16 16 17 18 19 18 18 20 21 21 22 23 23 21 19 19 19 20 20 19 19 19 19 18 18 19 21 22 24 25 26 26 24 21 20 20 20 20 19 20 22 23 23 24 24 24 25 26 28 29 30 29 28 26 26 26 28 29 30 31 31 29 26 24 26 32 39 44 47 49 50 51 52 52 52 52 52 52 52 52 51 49 48 47 46 45
17 18 20 21 22 21 20 21 22 23 23 22 21 19 18 18 19 19 19 19 19 19 19 19 20 22 22 23 24 24 24 23 22 21 19 18 19 20 20 21 22 23 23 23 23 24 26 27 28 30 31 30 29 27 25 25 26 27 29 30 31 31 29 26 24 28 34 40 44 47 49 50 51 51 51 51 51 51 51 51 50 50 48 47 46 45
20 21 23 24 23 23 22 23 23 23 22 21 19 19 20 21 20 19 19 19 19 20 20 21 22 23 22 22 22 22 21 20 21 22 19 14 16 20 19 20 21 21 21 21 23 26 28 29 31 32 33 31 29 26 25 24 24 26 27 29 31 32 31 28 24 24 30 36 41 45 48 49 50 50 50 50 50 50 50 50 49 49 48 47 46 45
21 22 22 22 22 22 22 22 22 22 21 21 21 22 22 22 21 20 19 19 19 19 20 21 21 21 21 21 20 20 18 18 19 20 18 16 17 19 19 19 19 20 20 22 24 27 29 31 32 33 33 31 28 26 24 24 25 25 27 28 30 31 31 30 26 22 24 32 39 44 47 49 50 51 50 50 50 50 49 49 48 48 47 46 45 44
20 20 20 20 20 20 20 20 21 21 21 21 22 22 22 21 20 20 19 18 18 18 19 19 20 20 20 20 19 18 18 18 19 19 17 16 17 18 18 19 20 21 22 25 27 28 29 30 31 32 32 30 27 24 24 25 26 26 26 27 28 29 30 30 29 25 20 24 33 41 46 49 51 51 51 50 50 50 49 49 48 47 46 45 45 44
17 18 18 18 18 19 19 19 19 20 20 20 21 22 22 22 21 20 18 17 17 17 18 18 17 17 19 19 19 18 19 19 19 18 17 15 15 17 18 20 21 22 24 26 27 27 27 28 29 30 29 27 25 24 24 27 28 28 26 25 25 26 28 29 29 27 23 19 22 33 43 49 51 52 52 51 51 50 50 49 48 47 47 46 45 45
17 17 17 17 17 17 18 18 19 19 19 19 20 20 21 21 20 18 16 16 16 17 16 14 12 14 17 18 18 19 20 20 18 17 17 17 16 17 19 21 22 23 24 25 25 25 24 25 26 27 26 24 23 24 26 29 30 30 27 23 22 23 25 27 28 28 25 21 17 21 32 43 49 53 53 53 52 51 51 51 50 49 49 48 47 47
16 16 16 17 17 17 17 18 18 19 19 19 19 19 19 19 18 16 15 16 17 17 15 13 11 10 13 15 18 21 21 19 16 16 19 19 17 16 20 22 22 22 23 24 24 24 23 22 23 23 23 22 22 24 27 30 32 31 27 22 20 20 22 24 26 27 26 24 21 17 19 29 40 48 53 54 54 54 53 53 52 51 51 50 49 48
17 17 16 16 16 17 18 18 19 19 19 19 18 18 17 16 16 15 16 17 18 17 15 15 14 13 14 17 20 21 20 16 14 16 21 19 17 17 21 21 21 21 22 23 24 23 21 19 19 19 20 21 23 26 29 31 31 30 27 23 20 19 20 22 24 26 26 25 24 21 17 17 25 36 45 50 52 53 53 52 50 49 49 48 47 46
18 18 17 17 17 18 18 19 19 18 18 18 17 16 16 15 15 16 16 18 18 17 16 16 16 16 16 17 16 15 14 14 15 18 21 18 17 18 21 21 21 21 21 19 16 14 16 18 17 17 18 21 24 27 29 29 29 28 27 25 22 20 20 20 22 24 26 27 26 24 20 15 14 21 30 38 43 46 47 46 46 45 44 44 44 43
19 18 18 18 18 19 19 18 18 18 18 17 16 16 15 15 16 16 16 17 17 17 17 17 17 17 16 13 9 6 8 15 18 19 21 18 17 19 20 20 21 21 20 16 8 4 9 14 17 18 19 22 25 26 26 26 25 25 25 25 25 23 21 20 21 23 25 28 28 27 23 19 14 11 17 24 31 36 38 40 41 41 40 39 39 40
18 18 18 18 18 19 19 18 18 18 18 17 16 16 16 16 16 16 17 17 17 17 17 17 17 17 17 15 10 7 10 17 20 21 22 19 18 19 20 20 20 21 21 18 14 9 7 7 14 21 22 22 23 23 24 23 23 22 23 24 25 25 24 21 20 22 24 27 29 29 26 22 17 12 9 12 19 25 30 34 37 38 38 37 36 37
18 18 18 18 18 19 19 18 18 18 18 17 17 17 17 17 17 17 17 17 17 18 18 18 18 18 18 18 16 15 16 18 19 21 22 21 19 18 19 19 20 21 21 20 19 16 12 12 16 22 23 22 21 21 22 22 21 21 22 24 25 25 25 23 22 22 23 26 29 30 28 24 20 16 12 8 8 14 20 26 32 36 38 38 37 36
18 18 18 18 18 19 18 19 19 18 18 18 17 18 18 18 18 18 18 18 18 18 18 18 18 18 18 18 19 19 19 19 20 21 23 23 20 18 20 20 19 19 20 19 19 18 17 18 19 20 21 22 22 21 20 19 20 20 22 23 24 25 25 24 23 22 23 25 27 30 30 26 22 18 16 13 9 7 10 16 23 30 36 38 38 36
18 18 18 18 19 19 19 19 19 19 19 18 18 18 18 19 19 19 20 20 20 19 18 18 18 18 18 18 18 19 21 21 22 23 23 24 22 21 20 19 18 19 19 18 18 17 16 18 20 19 19 20 21 20 18 18 19 21 22 23 24 25 25 24 23 23 23 23 25 28 29 27 23 19 17 16 14 11 9 10 15 22 29 35 37 37
17 18 18 18 18 19 19 19 20 19 19 19 19 19 19 20 20 20 21 22 21 20 19 19 19 19 19 19 19 21 22 24 25 25 25 25 25 23 20 18 19 19 19 18 18 17 16 17 19 20 19 17 17 18 19 19 21 22 22 22 23 24 25 24 23 23 23 23 24 25 26 25 23 20 17 17 17 16 14 12 12 16 21 27 32 35
17 17 18 18 18 18 19 19 19 19 19 20 20 20 21 21 22 22 21 22 22 21 21 20 20 20 20 20 21 23 24 26 26 27 26 26 25 24 21 19 20 21 19 18 17 17 17 16 17 18 18 15 14 16 19 21 21 21 20 21 22 23 24 24 24 23 23 23 22 22 22 23 23 21 18 16 17 17 17 16 14 14 17 22 27 31
17 17 18 18 19 19 19 19 19 20 20 20 21 21 22 22 23 23 22 22 21 21 21 21 21 22 22 22 22 23 24 25 25 25 25 25 25 24 22 22 22 22 21 19 19 18 18 14 12 11 11 14 17 19 20 21 20 19 19 20 21 22 22 23 24 24 24 23 22 21 20 22 24 24 21 17 16 17 18 18 17 15 16 18 23 27
17 17 17 18 18 18 19 19 19 20 21 21 21 21 22 23 23 22 21 21 21 21 21 21 22 22 22 23 23 23 23 23 23 23 23 23 24 24 24 23 22 23 23 22 21 20 18 15 12 10 9 12 17 21 22 21 20 20 20 21 21 20 20 22 24 24 24 24 22 20 19 19 21 22 21 18 17 17 17 17 17 16 16 18 21 24
17 17 17 18 18 18 18 19 20 21 21 22 22 22 22 22 21 21 21 21 21 20 21 21 21 21 22 22 22 22 22 22 22 22 22 22 22 23 23 23 23 22 23 23 22 20 19 18 17 17 16 16 17 19 21 21 20 21 21 19 18 17 19 21 22 23 24 24 23 21 19 18 18 18 19 18 17 16 14 14 15 15 16 17 19 22
17 17 17 18 19 19 20 20 21 21 21 21 21 21 22 21 21 21 22 21 21 21 21 21 21 22 22 22 22 21 21 21 21 22 22 21 21 21 22 22 23 23 23 23 22 21 19 18 18 18 18 18 19 19 20 20 21 21 21 18 17 18 19 19 19 20 21 23 24 24 22 20 19 20 21 21 20 17 13 12 13 14 15 16 18 19
17 17 18 19 20 20 20 21 21 21 21 20 20 20 20 20 21 21 21 21 22 22 22 22 22 23 23 22 22 22 21 21 21 22 22 21 21 20 20 21 22 22 22 22 21 20 19 18 18 18 18 18 18 18 18 20 21 21 20 19 20 20 19 16 16 17 20 23 24 23 22 20 20 22 24 24 22 19 16 13 13 14 16 17 18 19
18 18 19 20 20 21 21 21 21 21 20 21 21 21 21 20 20 20 20 20 21 21 22 22 22 22 22 22 23 23 23 22 22 22 21 21 21 20 20 21 22 22 22 21 21 20 20 19 18 18 18 18 18 18 18 19 20 20 20 21 20 18 13 12 15 18 20 21 22 22 22 20 19 20 22 23 23 21 19 17 16 16 17 18 19 20
18 18 19 20 20 20 21 21 21 21 21 20 20 20 21 21 21 20 20 20 20 21 21 21 22 21 21 21 22 23 24 24 23 23 22 21 20 20 21 22 22 22 22 21 20 20 21 20 19 19 19 18 18 18 18 18 19 19 20 21 21 18 14 13 16 18 19 20 20 21 22 22 21 20 20 21 21 21 19 18 17 17 18 19 20 21
18 19 20 20 20 21 21 21 21 21 21 21 21 21 21 22 21 20 19 19 20 21 22 21 21 20 19 20 21 23 24 24 24 24 23 22 22 21 22 22 23 23 23 22 21 21 21 21 21 21 21 20 18 17 17 17 18 19 20 21 21 21 19 18 18 17 17 18 19 21 23 24 24 22 20 19 18 18 17 17 17 18 18 19 21 22
19 19 20 20 21 21 20 21 21 21 21 22 22 22 22 21 21 20 19 19 20 20 20 20 19 18 18 19 21 22 22 23 24 25 25 24 24 24 24 23 23 24 24 24 24 24 23 23 24 24 23 20 18 17 17 17 17 17 19 20 21 21 20 19 18 17 16 17 19 21 24 25 24 22 18 17 16 16 16 16 17 18 19 20 21 22
19 20 20 20 21 21 21 22 22 21 22 22 22 22 22 22 21 21 20 20 20 20 20 20 19 18 18 19 20 20 21 22 23 24 24 25 26 26 26 25 24 24 24 24 24 24 23 24 24 24 22 19 17 16 16 17 17 17 17 19 20 20 19 18 18 18 19 20 21 24 25 25 23 20 18 17 16 16 15 16 16 17 19 20 22 23
19 19 20 20 20 21 21 21 22 22 22 22 23 23 22 22 21 20 20 21 21 20 20 19 19 18 19 19 20 20 20 20 21 23 23 24 25 25 25 26 26 25 25 25 24 23 22 21 21 20 19 18 16 15 16 16 17 17 18 18 19 18 17 18 19 21 22 23 25 27 27 24 21 20 19 18 16 15 15 15 16 17 18 19 21 23
19 19 19 20 20 20 21 21 22 22 22 22 23 23 23 22 22 21 20 20 20 20 19 19 19 19 19 20 20 20 21 21 21 22 22 23 23 24 25 25 26 26 25 25 24 23 22 20 18 15 14 14 15 15 15 15 17 18 18 18 17 17 17 18 20 21 22 25 27 29 28 24 22 20 20 18 16 15 14 15 16 17 17 18 20 22
19 19 19 19 20 20 21 21 21 21 22 22 22 23 23 23 23 22 21 20 20 19 19 19 19 19 19 20 21 21 21 21 21 22 22 23 23 23 23 24 25 25 24 24 24 23 22 20 17 14 11 9 10 12 14 16 18 19 18 17 16 16 17 18 20 22 23 25 27 28 28 25 22 21 19 17 16 15 14 14 15 16 16 17 18 21
20 20 20 20 20 20 21 21 21 21 21 22 22 23 23 23 23 23 22 21 20 20 19 19 19 19 18 19 20 21 21 21 21 22 23 23 22 22 22 22 22 22 21 20 20 19 19 17 15 14 13 10 9 10 13 17 19 19 18 17 17 17 18 19 21 22 24 25 25 25 25 23 21 19 18 17 15 14 13 13 13 15 16 17 19 21
Wind_Direction
335 336 339 344 345 344 344 349 350 349 346 346 345 344 343 343 342 341 339 335 332 329 329 331 334 334 328 322 312 302 293 287 284 282 280 278 276 275 273 272 271 269 268 266 264 263 262 262 262 262 262 261 260 259 258 256 255 253 252 251 250 249 247 245 243 241 238 237 235 235 236 236 236 236 235 234 233 234 234 235 235 234 232 231 229 229
337 337 340 343 345 344 342 346 350 350 346 344 343 342 342 342 342 341 340 337 335 333 331 330 333 337 338 338 333 322 310 300 292 287 283 280 278 276 275 274 273 272 270 268 266 264 263 262 261 261 261 261 261 260 259 258 256 254 253 252 251 249 248 246 244 242 240 238 236 236 235 236 236 236 235 234 234 234 234 235 235 234 233 232 231 231
339 338 339 342 344 343 340 342 346 348 346 343 341 340 341 342 342 340 339 337 336 334 332 329 328 331 335 339 339 335 328 319 309 298 290 285 281 278 276 275 275 273 272 270 268 266 264 262 261 260 260 260 260 260 260 259 257 255 254 252 251 250 248 247 245 243 241 239 238 237 236 236 236 236 235 234 234 234 234 234 235 234 233 233 232 231
339 338 338 339 340 340 339 339 341 343 343 341 339 339 340 341 340 338 337 336 336 335 332 329 327 327 328 329 330 332 334 333 328 320 311 302 294 287 282 280 278 276 274 271 269 267 265 263 262 260 259 259 260 260 260 259 258 256 254 253 251 250 249 247 245 243 242 240 239 238 237 237 236 236 235 234 234 234 234 235 234 234 234 233 233 232
338 337 336 337 336 335 335 336 338 339 341 341 340 339 339 339 337 335 335 335 335 335 332 330 328 327 327 326 326 327 331 333 334 333 330 326 318 307 297 291 287 283 278 274 271 268 266 264 262 261 260 259 260 260 260 259 258 256 255 253 252 250 249 247 246 244 242 241 239 238 238 237 237 236 236 235 234 234 234 235 235 235 234 233 233 232
334 334 334 333 332 331 331 332 334 339 344 343 341 339 338 337 335 334 334 335 335 334 332 330 329 328 327 326 325 326 328 331 333 333 330 328 327 324 316 307 298 291 285 279 274 270 268 265 263 262 260 259 259 260 260 259 258 257 255 254 253 252 250 248 247 245 243 242 240 239 238 238 237 237 236 236 235 235 235 235 235 235 234 233 233 232
330 331 332 331 330 329 329 329 334 343 349 346 341 338 337 335 334 334 333 333 333 333 331 330 329 328 327 327 327 327 328 331 332 330 326 323 323 324 325 322 314 303 292 283 277 272 269 267 265 263 261 259 258 258 259 258 257 256 256 255 254 253 252 250 248 246 245 243 242 241 239 238 237 237 237 236 236 236 236 236 235 235 234 233 233 232
328 330 332 332 332 330 329 329 336 345 348 345 341 337 335 334 333 332 332 333 333 333 332 331 330 329 328 328 329 330 332 334 333 329 324 321 320 321 324 327 327 324 315 299 284 275 270 267 265 263 261 259 258 257 257 258 257 257 256 256 255 254 253 252 250 248 246 245 243 242 241 239 238 237 237 237 237 237 237 236 236 235 234 233 233 232
328 329 330 332 332 331 329 330 336 342 342 342 339 335 333 333 333 333 333 333 333 334 334 332 331 329 328 329 331 333 335 335 332 326 324 322 321 321 321 323 327 330 330 324 310 290 276 268 264 262 260 259 258 257 257 257 257 257 257 257 256 256 255 254 252 250 248 246 244 243 241 240 239 238 237 237 237 237 237 237 236 235 233 232 232 232
330 329 329 330 332 330 328 328 332 336 338 338 336 334 334 334 334 334 333 332 333 334 334 333 331 329 328 329 331 334 336 333 327 323 322 323 323 322 321 321 323 326 330 331 328 319 301 283 271 265 260 258 257 256 257 257 257 257 257 257 257 256 256 255 254 252 250 248 245 243 242 240 239 238 238 238 238 237 237 237 236 235 233 231 230 231
332 331 329 329 330 330 329 328 329 332 335 335 335 335 337 338 337 335 331 330 330 332 332 331 329 328 327 328 330 333 334 329 324 322 323 324 325 324 323 322 322 324 327 330 331 332 331 324 308 288 273 264 258 256 255 256 256 256 256 256 256 256 256 256 255 253 251 249 246 244 242 241 240 239 239 238 238 237 237 237 237 235 233 228 227 229
332 331 330 329 330 330 331 330 330 332 336 338 338 338 338 339 338 334 328 326 326 328 328 327 326 325 325 325 328 330 331 328 326 326 326 325 326 326 326 325 325 325 327 329 330 332 336 341 338 328 312 289 272 262 257 255 254 254 254 255 255 256 256 256 255 254 252 250 248 246 243 242 241 240 239 238 237 236 236 236 236 235 232 227 225 227
333 331 330 329 330 330 331 332 333 335 338 340 340 337 335 334 334 331 325 322 322 324 325 324 323 323 324 325 327 329 329 328 328 328 327 327 327 327 329 328 328 328 329 329 328 328 331 335 336 336 335 324 304 282 267 260 256 254 254 254 255 255 255 256 255 255 253 251 249 247 245 243 241 239 238 236 235 235 234 235 236 235 232 227 224 224
334 332 331 331 330 330 331 332 332 333 336 338 337 334 331 330 330 329 326 322 322 322 323 321 321 321 323 326 328 329 329 330 330 329 327 325 326 327 330 329 329 328 329 328 326 325 327 328 329 330 333 334 327 312 292 275 265 259 256 255 255 255 255 255 255 254 253 251 249 247 245 242 240 238 236 235 234 234 233 233 234 235 233 230 227 225
333 332 330 329 328 328 328 329 330 331 333 334 334 333 331 330 330 329 327 324 323 324 324 323 322 322 322 326 328 329 330 331 331 328 325 323 323 326 330 329 328 327 327 325 322 322 324 323 322 322 323 325 327 327 319 305 289 275 265 260 257 255 255 255 254 253 252 250 248 246 243 241 239 237 236 234 234 233 232 232 233 234 234 233 232 231
331 329 327 325 325 325 326 327 329 330 331 332 333 333 331 329 328 328 326 324 324 325 326 326 325 324 322 324 326 330 331 331 329 325 322 319 320 324 329 328 325 322 322 321 319 319 320 319 318 318 317 318 320 323 325 324 320 308 291 274 263 258 255 255 254 253 251 249 246 244 242 240 238 237 235 234 233 232 232 232 233 233 233 234 234 234
329 328 326 324 323 324 326 329 330 330 331 331 331 330 328 326 324 324 324 324 324 325 326 326 325 323 322 322 324 328 332 330 326 321 317 314 316 321 326 325 321 317 317 317 316 316 317 317 317 318 318 319 321 322 323 324 324 323 317 301 281 266 258 255 253 252 251 248 246 244 242 240 239 237 235 234 233 232 232 232 232 232 232 232 232 232
331 330 328 326 326 326 328 329 330 330 330 329 328 326 324 322 321 321 322 323 323 323 323 322 320 317 316 316 319 324 329 327 322 317 313 310 312 318 323 322 318 314 313 312 313 314 316 317 318 319 320 321 322 323 324 325 326 326 323 317 303 283 266 256 253 252 250 249 246 244 242 240 239 237 235 234 233 232 232 232 232 231 231 230 230 230
334 333 332 330 327 326 325 326 327 328 328 327 324 322 320 320 321 322 321 322 321 319 319 317 315 313 311 309 313 320 325 324 319 313 309 307 309 314 319 319 316 312 310 310 311 314 317 319 321 321 322 321 321 322 324 328 330 330 328 323 314 300 281 262 253 250 249 248 247 244 242 240 239 237 236 234 234 233 232 232 231 229 228 227 227 227
332 330 330 328 326 323 322 321 322 323 323 321 319 317 316 319 322 322 321 320 318 317 317 313 311 311 311 309 312 317 322 322 318 311 306 304 306 311 316 317 314 311 309 309 312 316 319 320 321 321 321 321 320 320 324 329 334 336 334 330 323 313 296 274 258 250 248 247 246 245 243 241 239 237 236 235 234 233 232 230 228 226 225 224 224 223
326 323 324 323 322 319 317 317 318 319 318 317 316 315 317 321 322 322 321 320 319 318 318 313 311 310 311 310 310 313 318 319 314 308 306 305 305 309 315 316 314 311 308 310 313 318 321 321 320 320 320 320 320 321 324 330 334 336 338 337 333 325 312 291 268 253 247 246 246 246 244 242 239 238 236 235 234 233 231 229 226 224 222 221 221 221
319 316 316 317 316 315 313 314 315 317 319 318 316 317 321 323 321 319 320 321 321 320 317 312 309 309 308 306 306 309 315 317 314 309 308 306 305 309 315 316 313 311 308 311 316 320 321 320 319 319 320 321 321 323 326 329 330 332 334 338 339 336 327 310 284 261 248 245 245 246 245 243 241 239 237 236 234 232 230 228 225 224 222 221 221 221
315 313 313 314 315 315 315 315 316 319 321 322 322 322 324 321 317 316 319 322 320 317 313 310 308 307 306 304 305 308 314 319 320 317 312 306 306 309 314 318 316 312 311 315 320 321 320 318 317 318 320 322 323 325 327 327 325 324 326 332 337 340 338 328 307 277 255 246 244 245 245 244 242 240 238 236 234 232 230 227 226 225 224 223 223 224
315 313 314 314 316 316 317 317 319 321 324 326 327 326 325 322 319 319 321 321 319 315 313 312 311 310 309 309 309 311 315 321 325 322 314 305 303 308 316 323 323 319 316 318 320 320 319 317 316 317 320 322 324 326 325 324 321 318 317 323 331 337 341 339 329 305 271 252 245 244 243 243 242 241 239 236 234 231 229 227 226 225 225 226 226 227
317 315 315 315 316 317 317 319 321 324 326 328 328 328 326 325 324 324 324 323 320 318 317 316 315 314 313 314 313 314 317 323 324 320 311 304 303 311 322 329 328 323 318 318 318 318 317 315 315 316 318 321 323 324 323 322 321 318 316 319 324 332 338 340 339 329 303 269 251 244 242 241 241 240 238 235 232 230 228 227 226 226 227 228 229 231
321 319 318 318 318 319 320 322 324 326 328 329 330 329 329 329 330 329 328 326 324 324 322 319 316 314 315 316 315 315 319 323 323 319 313 312 315 319 324 328 327 322 317 316 317 317 315 312 312 314 316 320 323 323 322 323 324 324 322 322 324 329 334 337 338 337 329 304 268 249 242 239 238 237 235 233 231 229 228 227 227 228 229 231 233 235
328 326 324 323 324 325 326 327 328 329 330 331 331 332 333 334 334 332 329 328 328 326 323 319 316 316 317 317 315 316 319 322 322 324 329 331 327 321 321 323 322 320 316 315 315 315 313 309 309 311 314 318 320 321 321 324 328 330 330 329 329 331 335 336 336 335 334 329 305 267 246 239 236 234 233 232 230 229 229 230 231 232 233 235 236 237
336 334 332 331 331 331 330 331 331 332 332 333 333 335 337 338 337 332 328 329 329 327 322 318 316 316 317 316 314 314 317 319 322 331 339 339 329 318 317 319 319 319 317 315 314 313 311 308 308 311 313 316 318 319 322 326 331 334 335 335 335 336 337 337 335 333 331 331 326 307 270 246 237 234 232 232 232 232 233 235 236 238 239 239 239 239
341 339 337 336 336 336 335 334 334 334 334 335 336 338 340 340 337 332 329 331 330 326 321 319 317 316 315 314 313 313 315 317 325 335 339 336 324 314 316 317 319 320 320 318 316 315 313 312 312 314 315 317 318 320 323 328 332 336 338 338 338 338 338 337 334 331 327 326 326 324 309 273 246 237 234 233 234 236 237 239 241 242 242 241 239 238
344 343 342 340 340 339 338 337 336 336 336 337 338 339 341 341 338 333 331 332 331 327 322 320 318 317 316 316 315 314 314 318 327 335 338 332 322 316 318 318 319 320 322 321 319 316 315 316 316 317 317 317 318 320 323 327 332 336 339 339 338 337 337 336 333 329 325 324 324 325 324 311 276 247 237 235 236 237 239 241 242 241 240 238 235 233
344 343 342 341 341 340 340 339 338 338 338 338 339 340 340 340 338 335 333 333 331 327 323 320 319 318 317 317 316 312 312 316 323 332 336 330 321 316 318 317 317 318 320 320 318 310 314 316 317 318 318 317 317 318 321 325 330 334 337 338 337 335 334 333 332 328 325 323 323 324 326 326 316 281 249 238 236 237 238 239 238 236 233 230 228 226
343 343 342 341 340 341 341 340 340 339 339 339 339 339 338 337 336 334 333 332 329 326 323 320 318 317 316 313 309 302 303 310 319 328 333 328 320 315 315 313 313 315 317 315 310 305 307 311 314 315 316 315 315 316 319 323 328 332 335 336 334 333 332 332 331 328 325 324 323 323 324 327 330 325 292 251 238 236 236 236 234 231 226 223 221 220
343 343 342 341 341 341 341 341 340 340 339 338 338 337 336 335 334 333 331 329 327 325 322 320 318 317 316 312 308 303 303 308 316 324 329 326 319 313 312 311 311 313 315 313 309 305 300 302 308 312 313 313 313 314 317 321 326 331 333 334 332 332 332 332 330 328 325 323 322 322 323 325 331 336 336 313 263 241 236 235 232 228 224 221 219 218
343 343 343 343 342 342 342 341 341 340 339 338 337 336 335 334 332 331 330 328 326 324 321 319 317 317 316 314 311 307 306 309 315 321 324 322 316 310 310 310 311 312 314 314 312 309 304 303 306 310 312 312 313 313 314 319 324 328 331 332 331 332 333 332 330 327 324 322 322 323 323 325 329 336 343 344 334 293 255 242 236 231 226 223 220 219
343 343 344 344 344 343 342 342 341 340 339 338 337 335 334 332 331 329 328 328 326 323 320 317 315 313 312 311 309 308 307 309 314 318 320 317 313 309 308 309 311 313 313 312 312 312 309 307 308 309 311 312 312 312 313 317 322 326 328 330 331 332 333 333 330 326 323 321 321 323 324 326 328 332 338 343 346 340 314 276 252 240 233 228 225 222
343 343 344 344 344 343 342 341 340 339 338 337 336 334 333 331 330 328 327 327 326 323 320 316 313 310 307 304 303 303 304 307 311 315 317 315 312 310 308 308 310 312 311 310 310 310 309 309 310 310 311 311 312 313 315 318 322 324 326 328 330 332 332 332 330 326 322 320 320 322 325 325 325 324 327 335 343 344 336 315 285 260 245 235 230 226
343 343 343 343 343 341 340 338 338 337 336 334 333 332 331 330 329 328 326 326 325 322 320 317 314 311 308 305 302 300 301 305 309 314 316 316 314 311 308 307 309 310 309 308 308 309 310 310 311 312 312 311 312 314 316 319 321 322 322 326 328 329 330 331 330 327 322 318 318 319 322 321 318 315 317 327 337 341 337 327 309 285 262 245 235 229
342 341 341 342 341 340 338 336 335 334 333 331 329 327 328 329 329 329 326 325 323 321 320 318 316 314 312 309 306 304 304 306 310 314 316 318 317 315 311 309 309 310 309 307 306 307 308 310 311 312 312 312 312 312 314 317 318 319 319 322 324 325 326 328 328 326 321 318 316 317 319 318 315 313 314 320 330 335 333 329 320 304 283 261 245 235
340 339 339 339 338 337 335 333 331 330 328 326 325 325 326 328 329 327 325 324 323 321 322 320 317 315 313 312 310 309 309 310 313 316 318 320 321 320 317 313 312 312 313 312 310 307 306 306 307 308 311 311 312 313 313 314 314 316 318 320 321 321 322 324 325 325 322 318 316 316 319 319 318 316 314 314 317 322 325 326 322 312 295 275 257 245
337 336 335 336 335 333 330 329 327 325 324 324 324 325 326 327 327 326 326 326 324 324 323 322 320 317 315 313 313 313 313 315 317 319 321 323 324 324 322 319 317 316 317 317 314 310 306 304 303 304 305 306 308 310 311 311 312 314 317 318 318 317 319 321 324 324 324 322 320 320 320 319 317 314 309 303 300 303 312 320 322 316 303 283 263 248
334 333 332 332 332 330 329 327 325 324 324 323 324 325 327 327 327 327 327 327 327 327 327 326 324 321 319 318 317 317 318 319 320 321 322 324 325 326 326 325 323 321 320 318 316 312 308 304 303 303 303 303 304 305 306 307 309 311 312 311 309 309 312 316 321 325 326 325 324 323 321 318 313 310 305 299 291 288 295 309 318 318 310 292 270 252
332 331 330 329 328 327 326 325 325 325 325 324 325 325 325 325 325 324 324 325 326 328 329 329 327 324 322 320 320 321 321 321 322 323 324 325 326 327 326 326 324 323 321 318 315 312 309 306 304 302 301 302 303 304 304 305 306 307 306 304 304 305 307 312 321 328 328 327 326 324 320 315 311 309 309 306 301 294 292 298 309 316 312 300 283 263
330 328 326 326 326 326 326 327 327 327 327 326 326 326 325 324 324 323 323 322 323 325 327 328 326 324 322 321 322 323 323 324 324 325 326 327 327 327 325 324 323 322 321 318 315 312 311 309 305 302 301 301 302 301 301 303 304 305 304 302 302 301 302 312 323 328 329 328 327 324 320 315 308 303 303 306 307 307 305 306 311 315 314 308 295 278
326 325 325 325 325 325 326 327 327 327 327 325 323 322 323 324 324 323 322 320 321 323 325 325 325 323 322 322 323 324 324 324 325 326 327 327 327 326 325 323 323 322 321 317 313 312 311 310 306 303 302 301 300 298 298 299 301 303 303 302 300 296 295 306 317 323 326 328 328 327 325 322 315 307 299 299 301 305 309 310 312 312 311 310 302 289
326 326 327 327 327 327 327 326 325 325 325 324 322 321 322 323 323 322 320 320 321 322 324 324 323 323 322 322 323 323 324 324 325 326 327 328 327 327 326 325 325 324 322 317 313 309 307 305 304 304 304 302 298 295 294 295 298 300 302 303 302 299 298 303 310 316 321 325 328 329 330 330 325 317 306 298 295 296 298 301 302 303 303 303 301 295
328 328 327 327 327 326 325 325 324 324 324 323 323 322 321 322 322 322 320 320 320 320 320 321 322 320 319 320 321 322 323 323 324 326 327 327 328 328 327 327 326 325 322 319 316 312 307 303 301 302 302 302 299 295 293 293 295 299 304 308 311 311 312 313 315 319 324 328 331 333 334 335 331 324 313 305 299 296 293 292 293 293 295 297 298 297
327 326 325 325 324 324 324 324 324 323 322 322 321 321 321 322 322 322 321 321 321 320 319 320 319 317 316 317 319 319 319 320 321 323 324 325 327 327 328 327 326 325 323 321 319 316 313 310 307 303 299 297 296 296 297 298 301 305 311 319 323 324 325 327 332 338 340 340 339 338 338 337 334 328 322 316 310 305 300 295 293 292 293 296 297 298
325 323 323 322 321 321 322 323 323 322 320 320 320 320 321 321 322 322 320 320 320 319 319 319 318 317 316 317 317 317 316 316 318 320 321 323 324 325 326 327 326 326 325 324 322 320 318 316 313 308 300 293 290 291 298 305 312 319 325 328 331 332 334 339 343 345 345 343 341 340 340 337 332 328 324 321 317 312 308 304 301 298 297 298 298 299
322 321 320 320 319 319 319 320 320 320 319 318 318 319 320 321 321 321 319 317 317 317 316 315 315 315 315 315 316 316 317 317 317 318 319 321 322 323 324 325 326 326 326 326 325 325 324 322 320 317 313 303 294 292 302 314 323 327 329 330 332 334 337 338 338 338 338 337 336 337 337 335 331 327 324 320 317 315 313 310 308 305 304 302 301 299
322 320 320 319 318 317 317 317 317 317 317 317 317 317 319 320 320 320 318 317 316 315 314 313 313 312 312 313 314 315 317 317 317 318 319 320 321 322 322 324 325 326 327 327 329 329 329 328 326 326 329 327 319 315 319 325 327 328 327 328 330 333 333 331 330 330 331 331 331 332 333 332 331 329 326 322 318 315 314 313 312 311 310 308 304 301
321 321 320 318 317 315 316 315 315 314 314 315 316 316 317 318 318 319 318 317 316 315 313 312 311 310 309 310 312 314 316 316 315 316 317 318 319 320 320 321 323 325 326 327 329 330 331 331 329 327 327 328 332 333 331 330 328 326 326 326 327 329 329 326 325 325 326 326 327 328 328 328 328 328 329 326 322 318 316 316 316 316 315 313 309 305